Regional Weather Roundup
Issued by NWS

Home | Current Version | Previous Version | Graphics & Text | Print | Product List | Glossary On
Versions: 1 2 3 4 5 6 7 8 9 10 11 12 13 14 15 16 17 18 19 20 21 22 23 24 25 26 27 28 29 30 31 32 33 34 35 36 37 38 39 40 41 42 43 44 45 46 47 48 49 50
000
ASUS43 KOAX 222110
RWRNE

WEATHER ROUNDUP FOR NEBRASKA
NATIONAL WEATHER SERVICE OMAHA NE
300 PM CST MON DEC 22 2014

NOTES: SATELLITE DATA IS BEING USED TO AUGMENT CLOUD COVER ABOVE
       12000 FEET.
       "FAIR" INDICATES FEW OR NO CLOUDS BELOW 12,000 FEET WITH NO
       SIGNIFICANT WEATHER AND/OR OBSTRUCTIONS TO VISIBILITY.

  * THESE STATIONS DO NOT REPORT WEATHER SUCH AS RAIN...SNOW OR FOG.

NEZ001>004-019>022-054>056-222200-
NEBRASKA PANHANDLE

CITY           SKY/WX    TMP DP  RH WIND       PRES   REMARKS
SCOTTSBLUFF    PTSUNNY   40  25  55 NW28G39   29.64R WCI  29
ALLIANCE       MOSUNNY   40  23  50 NW26G33   29.56F WCI  29
CHADRON        MOSUNNY   41  22  46 NW30G41   29.59R
KIMBALL        PTSUNNY   36  27  69 NW17G25   29.62S WCI  26
SIDNEY         MOSUNNY   39  23  52 NW22      29.63R WCI  29
$$

NEZ057>060-069>072-079>082-222200-
SOUTHWEST NEBRASKA

CITY           SKY/WX    TMP DP  RH WIND       PRES   REMARKS
NORTH PLATTE   CLOUDY    45  23  42 NW23G35   29.53S
IMPERIAL       MOSUNNY   45  22  40 NW28G37   29.58F
LEXINGTON      CLOUDY    48  30  49 NW18G26   29.50S
MCCOOK         MOSUNNY   50  24  36 NW29G37   29.54F
OGALLALA       MOSUNNY   44  26  49 NW21G26   29.57F
$$

NEZ005>010-023>029-035>040-094-222200-
NORTH CENTRAL NEBRASKA

CITY           SKY/WX    TMP DP  RH WIND       PRES   REMARKS
VALENTINE      FLURRIES  35  32  88 NW12      29.49R WCI  27
AINSWORTH      CLOUDY    36  32  85 NW18G28   29.48S WCI  26
BROKEN BOW     PTSUNNY   44  31  60 NW18      29.48R
O`NEILL        CLOUDY    38  36  90 NW22      29.45R WCI  28
THEDFORD       CLOUDY    42  31  65 N9        29.49S
$$

NEZ041-046>049-061>064-073>077-083>087-222200-
SOUTH CENTRAL NEBRASKA

CITY           SKY/WX    TMP DP  RH WIND       PRES   REMARKS
GRAND ISLAND   CLOUDY    44  31  60 NW23G31   29.47R
AURORA         CLOUDY    45  33  63 NW20G29   29.45R
HASTINGS       PTSUNNY   47  30  51 NW22G28   29.47R
HEBRON         CLOUDY    47  33  56 NW15G23   29.46R
HOLDREGE       MOSUNNY   46  27  46 NW22G32   29.49S
KEARNEY *      PTSUNNY   46  28  49 NW20G28   29.48S
YORK           CLOUDY    45  36  70 NW17G24   29.44S
$$

NEZ011>018-030>034-042>045-222200-
NORTHEAST NEBRASKA

CITY           SKY/WX    TMP DP  RH WIND       PRES   REMARKS
NORFOLK        CLOUDY    41  36  82 NW15G24   29.42R
ALBION         CLOUDY    41  33  74 NW17G23   29.44R
BLAIR          RAIN      42  40  93 NW5       29.39S
COLUMBUS *     CLOUDY    43  36  75 NW15      29.44S
FREMONT        RAIN      43  42  95 NW8       29.42S
TEKAMAH        LGT RAIN  43  40  89 N6        29.40F
WAYNE          DRIZZLE   40  38  94 NW12      29.42R WCI  33
$$

NEZ050>053-065>068-078-088>093-222200-
SOUTHEAST NEBRASKA

CITY           SKY/WX    TMP DP  RH WIND       PRES   REMARKS
LINCOLN        CLOUDY    44  39  82 NW15      29.43F
OMAHA EPPLEY   LGT RAIN  43  42  97 SE6       29.41F FOG
BEATRICE       CLOUDY    44  40  84 NW15      29.44R
FALLS CITY     LGT RAIN  45  32  60 NW14      29.41R
NEBRASKA CITY  RAIN      43  43 100 NW7       29.40S
PLATTSMOUTH    RAIN      42  40  93 NW7       29.40S
$$

NEZ044-045-051>053-067-222200-
OMAHA AREA

CITY           SKY/WX    TMP DP  RH WIND       PRES   REMARKS
OMAHA EPPLEY   LGT RAIN  43  42  97 SE6       29.41F FOG
BLAIR          RAIN      42  40  93 NW5       29.39S
FREMONT        RAIN      43  42  95 NW8       29.42S
MILLARD        LGT RAIN  43  41  92 NW5       29.40S
OFFUTT AFB     LGT RAIN  43  42  96 SW3       29.39S
PLATTSMOUTH    RAIN      42  40  93 NW7       29.40S
WAHOO          RAIN      43  39  88 NW9       29.41S
$$


USA.gov is the U.S. government's official web portal to all federal, state and local government web resources and services.